Flag for Moldova Weather past 2 weeks in Cahul, Moldova

Now
77 °F

Passing clouds.


Feels Like: 78 °F
Forecast: 49 / 83 °F
Wind: 1 mph from East

Location: Galati

Current Time: Aug 29, 2014 at 5:07:27 PM

Latest Report: Aug 29, 2014 at 4:00 PM


Visibility: 13 mi

Pressure: 30.13 "Hg

Humidity: 32%

Dew point: 44 °F

Location of CahulLocation

Historic Weather in Cahul — Graph

°F

Cahul temperature yesterday

Maximum temperature yesterday: 75 °F (at 4:00 PM)
Minimum temperature yesterday: 63 °F (at 11:00 PM)
Average temperature yesterday: 69 °F

Past Weeks' High & Low Weather Summary

 TemperatureHumidityPressure
High96 °F (Aug 14, 5:00 PM)100% (Aug 16, 8:00 PM)30.19 "Hg (Aug 16, 8:00 PM)
Low56 °F (Aug 29, 6:00 AM)28% (Aug 20, 5:00 PM)29.70 "Hg (Aug 27, 7:00 PM)
Average72 °F64%29.95 "Hg
* Reported Aug 14 4:00 PM — Aug 29 4:00 PM, Cahul, Weather by CustomWeather, © 2014

Note: Actual official high and low records may vary slightly from our data, if they occured in-between our weather recording intervals... More about our weather records

Advertising

Cahul weather history for previous 24 hours

 ConditionsComfort  
Time TempWeatherWind HumidityBarometerVisibility
4:00 PM
Aug 29
77 °FPassing clouds.1 mph32%30.13 "Hg12 mi
3:00 PM76 °FPassing clouds.2 mph34%30.15 "Hg12 mi
2:00 PM76 °FPassing clouds.2 mph36%30.16 "Hg12 mi
1:00 PM76 °FPassing clouds.1 mph37%30.17 "Hg12 mi
12:00 PM73 °FPassing clouds.2 mph43%30.19 "Hg12 mi
11:00 AM70 °FPassing clouds.1 mph51%30.19 "Hg12 mi
10:00 AM67 °FPassing clouds.2 mph54%30.19 "Hg12 mi
9:00 AM64 °FPassing clouds.1 mph62%30.18 "Hg12 mi
8:00 AM58 °FPassing clouds.1 mph70%30.17 "Hg12 mi
7:00 AM56 °FPassing clouds.1 mph70%30.16 "Hg12 mi
6:00 AM56 °FClear.1 mph72%30.15 "Hg12 mi
5:00 AM56 °FClear.2 mph71%30.15 "Hg12 mi
4:00 AM56 °FClear.1 mph71%30.14 "Hg12 mi
3:00 AM59 °FClear.1 mph67%30.14 "Hg12 mi
2:00 AM58 °FClear.1 mph73%30.14 "Hg12 mi
1:00 AM61 °FClear.1 mph61%30.12 "Hg12 mi
12:00 AM63 °FClear.2 mph56%30.11 "Hg12 mi
11:00 PM
Aug 28
63 °FClear.2 mph58%30.11 "Hg12 mi
10:00 PM65 °FPassing clouds.1 mph54%30.10 "Hg12 mi
9:00 PM66 °FPassing clouds.2 mph54%30.08 "Hg12 mi
8:00 PM68 °FPassing clouds.3 mph50%30.05 "Hg12 mi
7:00 PM72 °FPartly sunny.3 mph42%30.03 "Hg12 mi
6:00 PM74 °FScattered clouds.3 mph38%30.01 "Hg12 mi
5:00 PM74 °FPassing clouds.5 mph35%30.00 "Hg12 mi
Weather by CustomWeather, © 2014

See weather overviewHow to use our weather pages